Weather History for Tamanrasset, Algeria

Change the Weather History Date:

Tuesday, February 26, 2013

  Actual Average Record
Temperature  
Mean Temperature 65 °F -  
Max Temperature 81 °F 71 °F 81 °F (2013)
Min Temperature 49 °F 47 °F 37 °F (1999)
Growing Degree Days 15 (Base 50)    
Moisture  
Dew Point 8 °F    
Average Humidity 11    
Maximum Humidity 19    
Minimum Humidity 4    
Precipitation  
Precipitation 0.00 in - - ()
Sea Level Pressure  
Sea Level Pressure 30.06 in    
Wind  
Wind Speed 6 mph ()    
Max Wind Speed 16 mph    
Max Gust Speed -    
Visibility 13.5 miles    
Events      
Averages and records for this station are not official NWS values.
T = Trace of Precipitation, MM = Missing Value Source: Averaged Metar Reports

Daily Weather History Graph

Daily Weather History Graph

Search for Another Location

Airport:

Trip Planner

Search our weather history database for the weather conditions in past years. The results will help you decide how hot, cold, wet, or windy it might be!

Date:

Astronomy

Feb. 26, 2013 Rise Set
Actual Time 7:02 AM CET 6:40 PM CET
Civil Twilight 6:39 AM CET 7:02 PM CET
Nautical Twilight 6:13 AM CET 7:29 PM CET
Astronomical Twilight 5:47 AM CET 7:55 PM CET
Moon 7:26 PM CET (2/26) 7:05 AM CET (2/26)
Length of Visible Light 12h 23m
Length of Day
11h 38m
Full, 100% of the Moon is Illuminated
Feb 26
Full
Mar 4
Last Quarter
Mar 11
New
Mar 19
First Quarter
Mar 27
Full

Hourly Weather History & Observations

Time (CET) Temp. Dew Point Humidity Pressure Visibility Wind Dir Wind Speed Gust Speed Precip Events Conditions
12:00 AM 53.6 °F -2.2 °F 10% 30.06 in - NNE 6.9 mph - N/A   Clear
12:30 AM 53.6 °F -0.4 °F 11% 30.06 in - NNE 9.2 mph - N/A   Clear
1:00 AM 54 °F -1 °F 4%  in 12 mi NNE 9.2 mph - -   Clear
1:00 AM 55.4 °F -0.4 °F 10% 30.06 in - NNE 9.2 mph - N/A   Clear
1:30 AM 53.6 °F -0.4 °F 11% 30.04 in - NE 8.1 mph - N/A   Clear
2:00 AM 51.8 °F 1.4 °F 13% 30.04 in - NE 8.1 mph - N/A   Clear
2:30 AM 51.8 °F 1.4 °F 13% 30.04 in - NE 5.8 mph - N/A   Clear
3:00 AM 51.8 °F 3.2 °F 14% 30.04 in - NE 5.8 mph - N/A   Clear
3:30 AM 51.8 °F 5.0 °F 15% 30.04 in - NE 4.6 mph - N/A   Clear
4:00 AM 51 °F 5 °F 7%  in 12 mi NE 6.9 mph - -   Clear
4:00 AM 51.8 °F 5.0 °F 15% 30.04 in - NE 6.9 mph - N/A   Clear
4:30 AM 51.8 °F 5.0 °F 15% 30.04 in - ENE 6.9 mph - N/A   Clear
5:00 AM 50.0 °F 6.8 °F 17% 30.04 in - Calm Calm - N/A   Clear
5:30 AM 51.8 °F 6.8 °F 16% 30.04 in - NE 4.6 mph - N/A   Clear
6:00 AM 51.8 °F 6.8 °F 16% 30.04 in - East 2.3 mph - N/A   Clear
6:30 AM 50.0 °F 6.8 °F 17% 30.04 in - Calm Calm - N/A   Clear
7:00 AM 51 °F 8 °F 8%  in 19 mi East 2.3 mph - -   Partly Cloudy
7:00 AM 50.0 °F 6.8 °F 17% 30.04 in - East 2.3 mph - N/A   Clear
7:30 AM 50.0 °F 5.0 °F 16% 30.04 in - South 1.2 mph - N/A   Clear
8:00 AM 51.8 °F 10.4 °F 19% 30.06 in - Calm Calm - N/A   Clear
8:30 AM 55.4 °F 10.4 °F 17% 30.06 in - Calm Calm - N/A   Clear
9:00 AM 59.0 °F 12.2 °F 16% 30.06 in - North 2.3 mph - N/A   Clear
9:30 AM 62.6 °F 14.0 °F 15% 30.09 in - North 2.3 mph - N/A   Clear
10:00 AM 69 °F 15 °F 5%  in 9 mi NNW 2.3 mph - -   Scattered Clouds
10:00 AM 69.8 °F 14.0 °F 12% 30.09 in - Variable 2.3 mph - N/A   Clear
10:30 AM 73.4 °F 14.0 °F 10% 30.12 in - Variable 1.2 mph - N/A   Clear
11:00 AM 75.2 °F 14.0 °F 10% 30.12 in - Variable 3.5 mph - N/A   Clear
11:30 AM 77.0 °F 15.8 °F 10% 30.09 in - WSW 10.4 mph - N/A   Clear
12:00 PM 77.0 °F 17.6 °F 11% 30.09 in - WSW 9.2 mph - N/A   Clear
12:30 PM 78.8 °F 15.8 °F 9% 30.09 in - WSW 8.1 mph - N/A   Clear
1:00 PM 80 °F 16 °F 4%  in 12 mi SW 13.8 mph - -   Scattered Clouds
1:00 PM 80.6 °F 15.8 °F 9% 30.06 in - SW 13.8 mph - N/A   Clear
1:30 PM 80.6 °F 15.8 °F 9% 30.06 in - West 12.7 mph - N/A   Clear
2:00 PM 80.6 °F 15.8 °F 9% 30.06 in - WSW 15.0 mph - N/A   Clear
2:30 PM 80.6 °F 14.0 °F 8% 30.06 in - WSW 16.1 mph - N/A   Clear
3:00 PM 75.2 °F 14.0 °F 10% 30.04 in - West 13.8 mph - N/A   Clear
3:30 PM 82.4 °F 14.0 °F 8% 30.04 in - WSW 10.4 mph - N/A   Clear
4:00 PM 81 °F 15 °F 4%  in 12 mi WSW 13.8 mph - -   Clear
4:00 PM 80.6 °F 14.0 °F 8% 30.04 in - WSW 13.8 mph - N/A   Clear
4:30 PM 80.6 °F 14.0 °F 8% 30.04 in - West 13.8 mph - N/A   Clear
5:00 PM 80.6 °F 14.0 °F 8% 30.04 in - West 13.8 mph - N/A   Clear
5:30 PM 78.8 °F 12.2 °F 8% 30.04 in - WNW 12.7 mph - N/A   Clear
6:00 PM 77.0 °F 12.2 °F 9% 30.04 in - West 9.2 mph - N/A   Clear
6:30 PM 75.2 °F 10.4 °F 8% 30.06 in - WNW 10.4 mph - N/A   Clear
7:00 PM 72 °F 10 °F 4%  in 16 mi WNW 9.2 mph - -   Clear
7:00 PM 73.4 °F 10.4 °F 9% 30.06 in - WNW 9.2 mph - N/A   Clear
7:30 PM 69.8 °F 8.6 °F 9% 30.06 in - NW 8.1 mph - N/A   Clear
8:00 PM 66.2 °F 6.8 °F 10% 30.06 in - NNW 6.9 mph - N/A   Clear
8:30 PM 64.4 °F 5.0 °F 10% 30.09 in - NW 8.1 mph - N/A   Clear
9:00 PM 60.8 °F 1.4 °F 9% 30.09 in - NNW 4.6 mph - N/A   Clear
9:30 PM 59.0 °F -0.4 °F 9% 30.09 in - North 3.5 mph - N/A   Clear
10:00 PM 56 °F -1 °F 4%  in 16 mi North 4.6 mph - -   Clear
10:00 PM 57.2 °F -2.2 °F 9% 30.09 in - North 4.6 mph - N/A   Clear
10:30 PM 53.6 °F -0.4 °F 11% 30.09 in - NNE 2.3 mph - N/A   Clear
11:00 PM 51.8 °F -2.2 °F 11% 30.09 in - North 2.3 mph - N/A   Clear
11:30 PM 51.8 °F -2.2 °F 11% 30.09 in - North 2.3 mph - N/A   Clear